TimeMDT,TemperatureF,Dew PointF,Humidity,Sea Level PressureIn,VisibilityMPH,Wind Direction,Wind SpeedMPH,Gust SpeedMPH,PrecipitationIn,Events,Conditions,WindDirDegrees,DateUTC
12:12 AM,14.0,8.6,79,29.67,0.8,SSE,5.8,-,N/A,Snow,Snow,150,2013-03-23 06:12:00
12:32 AM,12.2,5.0,73,29.65,5.0,SSE,10.4,-,N/A,Snow,Light Snow,150,2013-03-23 06:32:00
12:52 AM,12.2,5.0,73,29.65,10.0,South,12.7,18.4,N/A,,Overcast,180,2013-03-23 06:52:00
1:12 AM,12.2,5.0,73,29.64,1.5,South,11.5,-,N/A,Snow,Light Snow,170,2013-03-23 07:12:00
1:32 AM,12.2,5.0,73,29.65,1.2,South,13.8,-,N/A,Snow,Light Snow,190,2013-03-23 07:32:00
1:52 AM,12.2,5.0,73,29.65,1.0,North,-9999.0,-,N/A,Snow,Snow,0,2013-03-23 07:52:00
2:12 AM,12.2,5.0,73,29.65,0.5,WSW,9.2,-,N/A,Snow,Snow,250,2013-03-23 08:12:00
2:32 AM,10.4,3.2,73,29.63,1.2,North,-9999.0,-,N/A,Snow,Light Snow,0,2013-03-23 08:32:00
2:52 AM,10.4,3.2,73,29.63,1.5,West,12.7,-,N/A,Snow,Light Snow,260,2013-03-23 08:52:00
3:12 AM,8.6,1.4,73,29.63,0.8,North,-9999.0,-,N/A,Snow,Snow,0,2013-03-23 09:12:00
3:32 AM,8.6,1.4,73,29.61,1.2,WNW,21.9,-,N/A,Snow,Light Snow,290,2013-03-23 09:32:00
3:52 AM,8.6,1.4,73,29.61,1.2,West,17.3,-,N/A,Snow,Light Snow,270,2013-03-23 09:52:00
4:12 AM,6.8,-0.4,72,29.60,1.5,West,19.6,-,N/A,Snow,Light Snow,280,2013-03-23 10:12:00
4:32 AM,6.8,-0.4,72,29.60,5.0,West,12.7,24.2,N/A,Snow,Light Snow,260,2013-03-23 10:32:00
4:52 AM,6.8,-0.4,72,29.60,1.5,West,15.0,-,N/A,Snow,Light Snow,260,2013-03-23 10:52:00
5:12 AM,6.8,-0.4,72,29.58,2.5,West,17.3,-,N/A,Snow,Light Snow,260,2013-03-23 11:12:00
5:32 AM,5.0,-2.2,72,29.58,2.5,North,-9999.0,-,N/A,Snow,Light Snow,0,2013-03-23 11:32:00
5:52 AM,5.0,-2.2,72,29.58,2.0,WSW,13.8,32.2,N/A,Snow,Light Snow,250,2013-03-23 11:52:00
6:12 AM,5.0,-4.0,66,29.58,0.8,North,-9999.0,-,N/A,Snow,Snow,0,2013-03-23 12:12:00
6:21 AM,5.0,-4.0,66,29.58,0.8,West,18.4,-,N/A,Snow,Snow,270,2013-03-23 12:21:00
7:12 AM,5.0,-4.0,66,29.58,0.5,North,-9999.0,-,N/A,Snow,Snow,0,2013-03-23 13:12:00
7:32 AM,5.0,-4.0,66,29.60,0.2,North,-9999.0,-,N/A,Snow,Snow,0,2013-03-23 13:32:00
7:52 AM,5.0,-4.0,66,29.59,0.5,North,-9999.0,-,N/A,Snow,Snow,0,2013-03-23 13:52:00
8:12 AM,5.0,-4.0,66,29.59,0.5,West,23.0,28.8,N/A,Snow,Snow,280,2013-03-23 14:12:00
8:32 AM,3.2,-4.0,72,29.60,0.5,North,-9999.0,-,N/A,Snow,Light Snow,0,2013-03-23 14:32:00
8:52 AM,5.0,-4.0,66,29.60,0.5,North,-9999.0,-,N/A,Snow,Light Snow,0,2013-03-23 14:52:00
9:12 AM,3.2,-5.8,66,29.60,0.5,North,-9999.0,-,N/A,Snow,Light Snow,0,2013-03-23 15:12:00
9:32 AM,3.2,-4.0,72,29.61,0.5,North,-9999.0,-,N/A,Snow,Light Snow,0,2013-03-23 15:32:00
9:52 AM,5.0,-4.0,66,29.62,0.5,North,-9999.0,-,N/A,Snow,Light Snow,0,2013-03-23 15:52:00
10:12 AM,5.0,-4.0,66,29.62,0.5,North,-9999.0,-,N/A,Snow,Light Snow,0,2013-03-23 16:12:00
10:32 AM,3.2,-4.0,72,29.63,0.2,North,-9999.0,-,N/A,Snow,Snow,0,2013-03-23 16:32:00
10:52 AM,5.0,-4.0,66,29.64,-9999.0,North,-9999.0,-,N/A,,Overcast,0,2013-03-23 16:52:00
11:12 AM,5.0,-4.0,66,29.65,-9999.0,North,-9999.0,-,N/A,,Overcast,0,2013-03-23 17:12:00
11:32 AM,5.0,-4.0,66,29.65,-9999.0,North,-9999.0,-,N/A,,Overcast,0,2013-03-23 17:32:00
11:52 AM,5.0,-4.0,66,29.66,-9999.0,West,11.5,16.1,N/A,,Overcast,280,2013-03-23 17:52:00
12:12 PM,5.0,-4.0,66,29.66,-9999.0,West,11.5,-,N/A,,Overcast,280,2013-03-23 18:12:00
12:32 PM,5.0,-4.0,66,29.67,-9999.0,North,-9999.0,-,N/A,,Overcast,0,2013-03-23 18:32:00
12:52 PM,5.0,-2.2,72,29.67,-9999.0,North,-9999.0,-,N/A,,Overcast,0,2013-03-23 18:52:00
1:12 PM,5.0,-0.4,78,29.68,-9999.0,North,-9999.0,-,N/A,,Overcast,0,2013-03-23 19:12:00
1:32 PM,5.0,-0.4,78,29.69,-9999.0,North,-9999.0,-,N/A,,Overcast,0,2013-03-23 19:32:00
1:52 PM,5.0,-2.2,72,29.69,-9999.0,North,-9999.0,-,N/A,,Overcast,0,2013-03-23 19:52:00
2:12 PM,5.0,-2.2,72,29.69,-9999.0,West,6.9,20.7,N/A,,Overcast,280,2013-03-23 20:12:00
2:32 PM,5.0,-4.0,66,29.70,-9999.0,North,-9999.0,-,N/A,,Overcast,0,2013-03-23 20:32:00
2:52 PM,5.0,-2.2,72,29.70,-9999.0,North,-9999.0,-,N/A,,Overcast,0,2013-03-23 20:52:00
3:12 PM,5.0,-4.0,66,29.71,-9999.0,WNW,10.4,-,N/A,,Overcast,290,2013-03-23 21:12:00
3:32 PM,5.0,-2.2,72,29.71,-9999.0,WNW,11.5,-,N/A,,Overcast,290,2013-03-23 21:32:00
3:52 PM,5.0,-0.4,78,29.71,-9999.0,West,6.9,-,N/A,,Overcast,270,2013-03-23 21:52:00
4:12 PM,5.0,-0.4,78,29.72,-9999.0,WNW,12.7,-,N/A,,Overcast,290,2013-03-23 22:12:00
4:32 PM,5.0,-0.4,78,29.72,-9999.0,West,20.7,25.3,N/A,,Overcast,280,2013-03-23 22:32:00
4:52 PM,5.0,-0.4,78,29.73,-9999.0,North,-9999.0,-,N/A,,Overcast,0,2013-03-23 22:52:00
5:12 PM,5.0,-0.4,78,29.74,-9999.0,West,9.2,-,N/A,,Overcast,280,2013-03-23 23:12:00
5:32 PM,5.0,-0.4,78,29.74,-9999.0,West,17.3,-,N/A,,Overcast,280,2013-03-23 23:32:00
5:52 PM,5.0,-0.4,78,29.74,-9999.0,North,-9999.0,-,N/A,,Overcast,0,2013-03-23 23:52:00
6:12 PM,5.0,-2.2,72,29.75,-9999.0,North,-9999.0,-,N/A,,Overcast,0,2013-03-24 00:12:00
6:32 PM,5.0,-2.2,72,29.76,-9999.0,North,-9999.0,-,N/A,,Overcast,0,2013-03-24 00:32:00
6:52 PM,5.0,-2.2,72,29.77,-9999.0,North,-9999.0,-,N/A,,Overcast,0,2013-03-24 00:52:00
7:12 PM,5.0,-2.2,72,29.78,-9999.0,WNW,9.2,20.7,N/A,,Overcast,290,2013-03-24 01:12:00
7:32 PM,5.0,-4.0,66,29.79,-9999.0,West,19.6,24.2,N/A,,Overcast,280,2013-03-24 01:32:00
7:52 PM,5.0,-4.0,66,29.79,-9999.0,West,16.1,-,N/A,,Overcast,280,2013-03-24 01:52:00
8:12 PM,5.0,-4.0,66,29.80,-9999.0,West,13.8,18.4,N/A,,Overcast,270,2013-03-24 02:12:00
8:32 PM,5.0,-4.0,66,29.81,-9999.0,North,-9999.0,-,N/A,,Overcast,0,2013-03-24 02:32:00
8:52 PM,5.0,-4.0,66,29.81,-9999.0,West,17.3,-,N/A,,Overcast,280,2013-03-24 02:52:00
9:12 PM,3.2,-5.8,66,29.82,-9999.0,West,17.3,-,N/A,,Overcast,270,2013-03-24 03:12:00
9:32 PM,3.2,-5.8,66,29.82,-9999.0,West,19.6,-,N/A,,Overcast,270,2013-03-24 03:32:00
9:52 PM,3.2,-5.8,66,29.83,-9999.0,West,16.1,-,N/A,,Overcast,270,2013-03-24 03:52:00
10:12 PM,3.2,-5.8,66,29.84,-9999.0,West,17.3,-,N/A,,Overcast,280,2013-03-24 04:12:00
10:32 PM,1.4,-5.8,72,29.84,-9999.0,West,17.3,-,N/A,,Overcast,270,2013-03-24 04:32:00
10:52 PM,1.4,-5.8,72,29.83,-9999.0,West,20.7,-,N/A,,Overcast,270,2013-03-24 04:52:00
11:12 PM,1.4,-5.8,72,29.84,-9999.0,West,19.6,-,N/A,,Overcast,270,2013-03-24 05:12:00
11:32 PM,1.4,-5.8,72,29.84,-9999.0,West,11.5,-,N/A,,Overcast,270,2013-03-24 05:32:00
11:52 PM,1.4,-5.8,72,29.84,-9999.0,West,11.5,-,N/A,,Overcast,280,2013-03-24 05:52:00